Location: Berg
(48.4333°N, 13.9167°E)
Time: 08:56:15
(UTC+00:00)

USA 234 - Pass Details

Date: 18 September 2020
Orbit: 1102 x 1106 km, 123.0° (Epoch: 16 October)

Event Time Altitude Azimuth Distance (km) Brightness Sun altitude
Rises 18:32:41 0° 56° (NE) 3,927 5.8 -14.3°
Reaches altitude 10° 18:35:23 10° 64° (ENE) 2,967 5.1 -14.7°
Maximum altitude 18:41:26 39° 132° (SE) 1,598 3.7 -15.6°
Drops below altitude 10° 18:47:28 10° 199° (SSW) 2,956 5.5 -16.6°
Sets 18:50:08 0° 207° (SSW) 3,911 6.2 -17.0°
